THORAD AGENA D DEB, 4935

Orbit data source: Space-Track

THORAD AGENA D DEB, 4935 is space debris in SSO originally from a launch on Wed, 08 Apr 1970 UTC launched from the Air Force Western Test Range (AFWTR). Debris objects in space refer to the collection of defunct objects orbiting the Earth. Examples of debris include non-operational satellites, rocket bodies, and fragments generated from explosions, collisions, or faulty payload assembly.

Loading next visibility...
Identifier
4935, 1970-025GB
Orbit
SSO
Country
Flag of USUS
Related business
Manufacturer
Unknown
Mission
Spacecraft
Bus & Motor
Unknown
Mass
Unknown
Launch date (UTC)
1970-04-08 (56 years ago)
Launch vehicle
Unknown
Launch site
Air Force Western Test Range (AFWTR)
Object type
Payload
Rocket body
Debris
Shape & HBR
Unknown shape, 0.1 m
Radar Cross Section
Small (<0.1 m²)

Expand to show TLE details & history
Last TLE update: 14 hours ago

TLE from 14 hours ago
0 THORAD AGENA D DEB
1  4935U 70025GB  26132.57677147  .00000467  00000-0  43130-3 0  9994
2  4935  99.8521 258.5630 0064664 103.6278 319.2517 13.87260760812109
Epoch: 2026-05-12T13:50Z
TLE epoch observation values (Epoch: 2026-05-12T13:50:33.055Z)
Latitude
60.91373°
Longitude
162.48337°
Altitude
912.845 km
Speed
7.419 km/s
True Right ascension
16h 01m 52s
True Declination
60° 46' 14"
Sunlit
Object was in daylight at epoch
Visualization orbit readout
Latitude
Unknown
Longitude
Unknown
Altitude
Unknown
Speed
Unknown
Apparent Right ascension
Unknown
Apparent Declination
Unknown
Sunlit
N/A
Visualization observer readout
Local Sidereal Time
12:36:01
Azimuth
Unknown
Elevation
Unknown
Doppler factor
Unknown
Orbital elements
Apogee altitude
982.799 km
Perigee altitude
888.213 km
Semi-major axis
7,313.643 km
Eccentricity
0.00647
Inclination
99.8521°
RAAN
258.563°
Arg. of periapsis
103.6278°
True anomaly
318.76505°
Mean anomaly
319.2517°
Eccentric anomaly
319.00867°
Mean motion
3.4701 °/min
Orbital period
103.74 mins
BSTAR
0.0004313

Documentation

Showing up to 5 results
|